Content
SEND FEEDBACK

Daily
Averages
Monthly
Summary
United States of America

ROCKFISH, VIRGINIA


Home > North America > United States > Virginia
Elevation: 49 feet     Latitude: 37 48N     Longitude: 078 45W

WEATHER
 
SELECT A DAY
Number of Records: 209,809;   Date Range: 1/1/95 - 10/22/14
 
SHARE

PRINT THIS DATA

[ ← Previous Day ]
WEATHER ALMANAC - MARCH 22, 2014
[ Next Day → ]
[ °C ]   °F
Weather ElementAverageHighLow
Temperature53.5 °F71.6 °F (5:58 pm)36.9 °F (1:58 am)
Dewpoint32.3 °F37 °F (6:58 am)20.3 °F (5:58 pm)
Humidity53.5 %97 % (1:58 am)14 % (5:58 pm)
Barometer29.92 in30.02 in (11:58 pm)29.85 in (2:58 pm)
Wind Speed3.9 mph9.2 mph (2:58 pm)
Weather ElementAverage
Visibility10 mi
Wind DirectionSSE (151.3 °)

Weather ElementTotal
Precipitation---
Heating Degree Days10.8 (Base 65)
Growing Degree Days4.3 (Base 50)
Averaged from 23 records on March 22, 2014
WEATHER CONDITIONS BREAKOUT
WIND DIRECTION BREAKOUT
WEATHER BY HOUR - MARCH 22, 2014
[ °C ]   °F
Local TimeTemperatureDewpointHumidityBarometerVisibilityWind DirectionWind SpeedGust SpeedPrecipitationEventsConditions
1:58 AM36.9 °F36.0 °F97 %30.00 in10.0 miNW (310°)2.3 mphClear
2:58 AM37.8 °F36.3 °F95 %29.97 in10.0 miCalmClear
3:58 AM37.6 °F36.3 °F95 %29.94 in10.0 miCalmClear
4:58 AM37.0 °F36.1 °F97 %29.92 in10.0 miCalmClear
5:58 AM37.4 °F36.7 °F97 %29.92 in10.0 miCalmPartly Cloudy
6:58 AM38.3 °F37.0 °F95 %29.90 in10.0 miVariable1.2 mphClear
7:58 AM40.8 °F36.5 °F85 %29.90 in10.0 miSE (130°)1.2 mphOvercast
8:58 AM46.2 °F34.7 °F64 %29.89 in10.0 miVariable1.2 mphPartly Cloudy
9:58 AM50.2 °F34.0 °F54 %29.90 in10.0 miVariable3.5 mphClear
10:58 AM55.6 °F34.0 °F44 %29.88 in10.0 miVariable5.8 mphClear
11:58 AM58.6 °F33.8 °F39 %29.88 in10.0 miSouth (180°)5.8 mphClear
12:58 PM63.0 °F33.4 °F33 %29.88 in10.0 miVariable5.8 mphClear
1:58 PM68.4 °F33.4 °F27 %29.87 in10.0 miSSW (200°)5.8 mphScattered Clouds
2:58 PM70.3 °F32.0 °F24 %29.85 in10.0 miSW (220°)9.2 mphClear
3:58 PM71.2 °F28.4 °F20 %29.85 in10.0 miWSW (250°)9.2 mphClear
4:58 PM71.1 °F28.6 °F21 %29.86 in10.0 miSW (230°)6.9 mphClear
5:58 PM71.6 °F20.3 °F14 %29.88 in10.0 miWNW (300°)6.9 mphClear
6:58 PM68.9 °F26.2 °F20 %29.90 in10.0 miNorth (360°)6.9 mphClear
7:58 PM62.8 °F28.9 °F28 %29.92 in10.0 miNorth (360°)4.6 mphClear
8:58 PM59.5 °F28.4 °F31 %29.96 in10.0 miVariable4.6 mphClear
9:58 PM54.5 °F28.8 °F37 %29.98 in10.0 miNNW (330°)3.5 mphClear
10:58 PM46.9 °F31.5 °F55 %30.00 in10.0 miNW (310°)3.5 mphClear
11:58 PM45.1 °F31.5 °F59 %30.02 in10.0 miWNW (300°)1.2 mphClear
Hourly data recorded from KDAA, located miles away from Rockfish, Virginia







STORIES FROM OUR PARTNERS